RADUGA 24 (20367 NORAD) Tracking and Keplerian Element Data

This shows tracking and keplerian element data for the satellite.

Feedback or suggestion? Click here.




ElementValue
Catalog20367
NameRADUGA 24
Epoch Orbit13117
Epoch Day353.99633368
Epoch Year2025
RAAN335.063
Inclination12.6992
Eccentricity0.000419
Argument of Perigee282.295
Mean Anonmoly269.8703
Mean Motion1.00338534
Decay Rate-1.48E-06
L11 20367U 89098A 25353.99633368 -.00000148 00000+0 00000+0 0 9999
L22 20367 12.6992 335.0630 0004190 282.2950 269.8703 1.00338534131176



Live tracking and technical data element details for RADUGA 24 (NORAD 20367). RADUGA 24 can be tracked NOW for your location showing map with azimuth and elevation plus other details from your city location.







IsCatalogInMostPopularTable: catalog: 20367, numindb: 371
Update: records affected: 1



GetName: 20367 RADUGA 24

Hit Count: updated at: Sat, 07 Mar 2026 05:52:25 GMT